Location: 22
(39.7117°N, 89.5929°W)
Time: 06:26:21
(UTC-05:00)

Vanguard 1 Rocket - Pass Details

Date: 08 February 2023
Orbit: 652 x 4223 km, 34.3° (Epoch: 26 March)

Event Time Altitude Azimuth Distance (km) Brightness Sun altitude
Rises 12:44:39 0° 260° (W) 4,304 11.1 34.9°
Reaches altitude 10° 12:46:57 10° 258° (WSW) 3,627 10.8 34.8°
Maximum altitude 12:56:45 70° 176° (S) 2,396 10.6 34.4°
Drops below altitude 10° 13:16:22 10° 98° (E) 6,731 11.8 33.4°
Sets 13:22:32 0° 97° (E) 8,119 12.1 33.0°
